[[{"header":{"parameterUnit":"m.s-1","parameterCategory":1,"la1":30.2991,"la2":30.254,"lo1":-89.0895,"lo2":-89.0444,"dy":0.0017,"dx":0.0017,"nx":28,"ny":28,"refTime":"2025-04-14T09:00:00:Z","depth":0,"parameterNumber":2,"parameterNumberName":"U-component_of_WINDS"},"data":[0,0,0,0,0,0,0,0,0,0,0,0,0,0,0,0,0,0,0,0,0,0,0,0,0,0,0,0,0,0,0,0,0,0,0,0,0,0,0,0,0,0,0,0,0,0,0,0,0,0,0,0,0,0,0,0,0,0,4.8929,4.893,0,4.9043,4.9044,4.9045,4.9005,4.9002,4.9,4.8997,4.9113,4.9119,4.9124,0,0,0,0,0,0,0,0,0,0,0,0,0,4.8676,4.8681,4.8929,4.8931,4.8932,4.9042,4.9044,4.9045,4.9005,4.9002,4.8999,4.8996,4.9111,4.9118,4.9124,0,0,0,0,0,0,0,0,0,0,0,0,0,4.8787,4.8683,4.8929,4.8925,4.8926,4.9042,4.9044,4.9046,4.9006,4.9002,4.8998,4.8995,4.9109,4.9117,4.9125,4.9252,0,0,4.915,4.9154,0,0,0,0,0,0,0,0,4.8781,4.8797,4.8924,4.8926,4.8927,4.9005,4.8997,4.9115,4.9007,4.8975,4.8997,4.8993,4.9081,4.9091,4.912,4.9257,4.9262,4.9151,4.9156,4.916,4.9162,0,0,0,0,0,0,0,4.8774,4.8792,4.8974,4.8926,4.8928,4.8917,4.8929,4.9019,4.9048,4.8978,4.8975,4.8989,4.908,4.9113,4.9123,4.9264,4.9151,4.9158,4.9163,4.9166,4.9507,4.9511,0,0,0,0,0,0,4.8765,4.8786,4.897,4.8977,4.8843,4.8925,4.8938,4.8984,4.9047,4.9053,4.8992,4.8987,4.9101,4.9113,4.9127,4.9276,4.9159,4.9167,4.9172,4.9503,4.9508,4.9512,0,0,0,0,0,0,4.876,4.8782,4.8966,4.8881,4.8903,4.8933,4.8985,4.8988,4.902,4.9058,4.9062,4.902,4.9098,4.9115,4.922,4.928,4.9171,4.9178,4.9498,4.9504,4.951,4.9578,0,0,0,0,0,0,4.8753,4.8781,4.883,4.8882,4.8908,4.9058,4.8989,4.8993,4.9035,4.9029,4.9085,4.9091,4.9096,4.9208,4.9228,4.9289,4.9185,4.9493,4.9501,4.9508,4.957,4.9586,4.9599,0,0,0,0,0,4.8744,4.8845,4.8832,4.8855,4.897,4.9062,4.9076,4.9081,4.904,4.9088,4.9112,4.9089,4.9271,4.9219,4.9242,4.9306,4.9489,4.9498,4.9507,4.9564,4.9583,4.9598,0,0,0,0,0,0,4.8799,4.8852,4.8838,4.8959,4.9006,4.9055,4.9116,4.9101,4.9161,4.9152,4.9156,4.9169,4.9276,4.9302,4.9244,4.943,4.9373,4.9388,4.9409,4.9427,4.9441,4.9431,4.9191,0,0,0,0,0,4.8825,4.8896,4.8938,4.904,4.9065,4.9087,4.9127,4.9126,4.9175,4.9195,4.9226,4.9274,4.9341,4.9386,4.945,4.9575,4.9585,4.9629,4.9644,4.9655,4.9666,4.9731,4.975,4.9543,4.9543,4.9543,0,0,4.888,4.8917,4.8962,4.9052,4.9089,4.916,4.9104,4.9183,4.9235,4.9207,4.9306,4.9332,4.9385,4.9499,4.9551,4.9524,4.9726,4.9667,4.9676,4.9681,4.9742,4.9762,4.9779,4.9549,4.9548,4.9547,0,0,4.9015,4.9052,4.914,4.9177,4.9232,4.9246,4.9267,4.9318,4.9333,4.9434,4.9412,4.9475,4.9593,4.963,4.9665,4.9813,4.9793,4.9835,4.9907,4.997,4.9986,5.0001,5.0051,5.0069,4.9846,4.9847,4.9847,0,4.9076,4.9184,4.9187,4.9267,4.9306,4.9283,4.9371,4.9407,4.9481,4.9508,4.9477,4.9621,4.9656,4.9777,4.9813,4.9843,4.9866,4.9827,4.9984,4.9998,5.0012,5.0059,5.0079,4.9851,4.9851,4.985,4.985,0,4.9254,4.9329,4.9393,4.9464,4.9511,4.9595,4.9609,4.9656,4.9652,4.9668,4.9769,4.981,4.9881,4.991,4.9907,5.0031,5.0012,4.9983,4.9925,5.0036,5.008,5.0099,4.9857,4.9856,4.9854,4.9853,0,0,4.9427,4.9497,4.952,4.9551,4.9609,4.9667,4.9749,4.9818,4.9857,4.9908,4.9975,5.0074,5.0047,5.0086,5.0087,5.0142,5.0253,5.0106,5.0107,5.0129,5.0388,5.0408,5.0429,5.0241,5.0245,5.0248,5.0383,0,4.9565,4.9708,4.9713,4.9843,4.9911,4.9889,4.996,5.0003,5.0021,5.008,5.01,5.0168,5.0129,5.0152,5.0206,5.0228,5.0305,5.0219,5.0302,5.0305,5.0286,5.0453,5.0474,5.06,5.04,5.0404,5.0406,0,4.9745,4.98,4.9937,4.9984,5.0012,5.0076,5.0138,5.0196,5.0244,5.0252,5.0296,5.0287,5.037,5.0312,5.0424,5.0365,5.0399,5.0415,5.042,5.0426,5.036,5.046,5.064,5.0658,5.0434,5.0432,5.043,0,4.9853,4.9963,5.0058,5.0085,5.0143,5.0187,5.0213,5.0257,5.0297,5.0352,5.0377,5.0441,5.0476,5.0525,5.0533,5.0491,5.0645,5.0588,5.0652,5.0652,5.0684,5.0681,5.0869,5.0711,5.0711,5.071,5.071,0,5.0005,5.0088,5.0107,5.0165,5.0258,5.0262,5.0354,5.0376,5.0415,5.0477,5.0463,5.0521,5.053,5.059,5.0598,5.0687,5.0704,5.0712,5.0712,5.0711,5.071,5.0732,5.0722,5.0715,5.0714,5.0713,5.0712,0,5.014,5.0156,5.0258,5.0304,5.0317,5.0383,5.0421,5.0477,5.0492,5.057,5.0589,5.0613,5.0683,5.0697,5.078,5.0784,5.089,5.0884,5.0874,5.0872,5.0934,5.0927,5.1141,5.1167,5.0995,5.0996,5.0998,0,5.0234,5.0298,5.035,5.039,5.0418,5.0483,5.0523,5.053,5.0572,5.063,5.0678,5.0746,5.08,5.0912,5.0937,5.0999,5.0992,5.1063,5.1001,5.0997,5.0989,5.0984,5.0989,5.1073,5.1075,5.1077,5.1078,0,5.0399,5.0403,5.0462,5.0523,5.0572,5.062,5.0667,5.07,5.0713,5.0761,5.0831,5.0873,5.0957,5.1023,5.1085,5.1111,5.1096,5.1097,5.1115,5.1113,5.1103,5.1106,5.0902,5.1092,5.109,5.1089,5.1089,5.1088,5.0515,5.0569,5.0613,5.0678,5.0714,5.0757,5.081,5.0832,5.0891,5.0958,5.0959,5.1035,5.1079,5.1161,5.1191,5.125,5.1227,5.1254,5.126,5.1265,5.1269,5.1096,5.1261,5.1261,5.1261,5.126,5.126,0,5.0675,5.0703,5.0763,5.0827,5.0878,5.086,5.0909,5.0953,5.102,5.1062,5.1116,5.1195,5.1259,5.1289,5.1352,5.1393,5.1387,5.1409,5.1405,5.141,5.1288,5.1264,5.1412,5.1412,5.1412,5.1412,5.1412,5.1412,5.0765,5.0855,5.0864,5.0971,5.0997,5.1071,5.1101,5.114,5.1173,5.1262,5.1315,5.1334,5.1371,5.1436,5.1493,5.15,5.1523,5.1547,5.1551,5.1435,5.1419,5.1404,5.1382,5.1553,5.1553,5.1668,5.1669,5.167]},{"header":{"parameterUnit":"m.s-1","parameterCategory":1,"la1":30.2991,"la2":30.254,"lo1":-89.0895,"lo2":-89.0444,"dy":0.0017,"dx":0.0017,"nx":28,"ny":28,"refTime":"2025-04-14T09:00:00:Z","depth":0,"parameterNumber":3,"parameterNumberName":"V-component_of_WINDS"},"data":[0,0,0,0,0,0,0,0,0,0,0,0,0,0,0,0,0,0,0,0,0,0,0,0,0,0,0,0,0,0,0,0,0,0,0,0,0,0,0,0,0,0,0,0,0,0,0,0,0,0,0,0,0,0,0,0,0,0,3.8464,3.8465,0,3.8526,3.8526,3.8527,3.851,3.8508,3.8507,3.8506,3.8565,3.8567,3.857,0,0,0,0,0,0,0,0,0,0,0,0,0,3.8328,3.833,3.8464,3.8465,3.8466,3.8525,3.8526,3.8527,3.851,3.8508,3.8507,3.8505,3.8564,3.8567,3.857,0,0,0,0,0,0,0,0,0,0,0,0,0,3.8388,3.8331,3.8464,3.8465,3.8465,3.8525,3.8526,3.8527,3.851,3.8508,3.8506,3.8505,3.8563,3.8567,3.8571,3.8633,0,0,3.8583,3.8585,0,0,0,0,0,0,0,0,3.8384,3.8393,3.8464,3.8465,3.8466,3.8508,3.85,3.8563,3.8511,3.8493,3.8506,3.8504,3.8547,3.8552,3.8568,3.8635,3.8638,3.8583,3.8586,3.8588,3.8589,0,0,0,0,0,0,0,3.838,3.839,3.8488,3.8465,3.8466,3.846,3.8467,3.8511,3.8529,3.8494,3.8493,3.8501,3.8547,3.8564,3.8569,3.8639,3.8583,3.8587,3.8589,3.8591,3.8759,3.8761,0,0,0,0,0,0,3.8376,3.8387,3.8486,3.849,3.842,3.8464,3.8471,3.8496,3.8529,3.8532,3.8503,3.85,3.8558,3.8564,3.8571,3.8645,3.8588,3.8591,3.8594,3.8757,3.8759,3.8761,0,0,0,0,0,0,3.8373,3.8385,3.8484,3.8438,3.845,3.8468,3.8497,3.8498,3.8515,3.8535,3.8538,3.8517,3.8557,3.8565,3.8617,3.8647,3.8593,3.8597,3.8754,3.8758,3.876,3.8794,0,0,0,0,0,0,3.8369,3.8384,3.8409,3.8439,3.8453,3.8531,3.8498,3.8501,3.8523,3.852,3.8549,3.8552,3.8556,3.8611,3.8621,3.8651,3.86,3.8752,3.8756,3.8759,3.879,3.8798,3.8804,0,0,0,0,0,3.8365,3.8416,3.8411,3.8423,3.8485,3.8533,3.8541,3.8545,3.8525,3.855,3.8562,3.8551,3.8642,3.8617,3.8628,3.8659,3.875,3.8755,3.8759,3.8787,3.8796,3.8804,0,0,0,0,0,0,3.8388,3.842,3.8414,3.8477,3.8503,3.853,3.8561,3.8555,3.8585,3.8581,3.8584,3.8591,3.8644,3.8657,3.8629,3.872,3.8693,3.87,3.871,3.8719,3.8726,3.8721,3.8603,0,0,0,0,0,3.84,3.8438,3.8463,3.8516,3.8529,3.8543,3.8564,3.8565,3.8591,3.8601,3.8618,3.8642,3.8676,3.8698,3.8731,3.8792,3.8797,3.8819,3.8826,3.8831,3.8837,3.8869,3.8878,3.8776,3.8776,3.8776,0,0,3.8426,3.8448,3.8472,3.8521,3.8541,3.8578,3.8552,3.8593,3.862,3.8607,3.8658,3.8671,3.8698,3.8754,3.878,3.8767,3.8866,3.8837,3.8841,3.8844,3.8875,3.8884,3.8893,3.878,3.8779,3.8778,0,0,3.8493,3.8514,3.856,3.858,3.8611,3.862,3.8631,3.8659,3.8667,3.8718,3.8709,3.874,3.8799,3.8819,3.8836,3.8909,3.8899,3.8919,3.8955,3.8986,3.8994,3.9001,3.9026,3.9035,3.8925,3.8925,3.8925,0,3.8521,3.8578,3.8583,3.8625,3.8646,3.8637,3.8683,3.8702,3.8741,3.8755,3.874,3.8813,3.883,3.8891,3.8909,3.8924,3.8935,3.8916,3.8993,3.9,3.9007,3.903,3.904,3.8927,3.8927,3.8927,3.8927,0,3.861,3.865,3.8683,3.8723,3.8747,3.8791,3.8801,3.8825,3.8824,3.8833,3.8884,3.8905,3.8941,3.8956,3.8955,3.9016,3.9006,3.8992,3.8964,3.9018,3.9041,3.905,3.893,3.893,3.8929,3.8928,0,0,3.8693,3.8735,3.8746,3.8764,3.8797,3.8827,3.8869,3.8905,3.8925,3.8952,3.8986,3.9036,3.9023,3.9043,3.9043,3.9071,3.9125,3.9053,3.9053,3.9065,3.9192,3.9202,3.9213,3.912,3.9121,3.9123,3.919,0,3.8761,3.8837,3.8842,3.891,3.8946,3.8937,3.8974,3.8997,3.9007,3.9037,3.9048,3.9082,3.9063,3.9075,3.9102,3.9113,3.9151,3.9109,3.915,3.9151,3.9143,3.9225,3.9236,3.9298,3.9199,3.92,3.9201,0,3.8851,3.8882,3.8954,3.8981,3.8996,3.9029,3.9062,3.9092,3.9117,3.9122,3.9144,3.9141,3.9182,3.9154,3.9209,3.918,3.9198,3.9206,3.9208,3.9211,3.9179,3.9229,3.9318,3.9327,3.9215,3.9214,3.9213,0,3.8903,3.8962,3.9012,3.9027,3.906,3.9083,3.9098,3.9122,3.9143,3.9171,3.9184,3.9217,3.9234,3.9259,3.9264,3.9243,3.9319,3.9291,3.9323,3.9323,3.9339,3.9338,3.9431,3.9352,3.9352,3.9352,3.9351,0,3.8978,3.9022,3.9036,3.9067,3.9115,3.912,3.9166,3.9179,3.92,3.9232,3.9226,3.9256,3.9261,3.9292,3.9296,3.934,3.9349,3.9353,3.9353,3.9353,3.9352,3.9363,3.9359,3.9354,3.9354,3.9353,3.9353,0,3.9044,3.9055,3.9109,3.9136,3.9144,3.9178,3.92,3.9228,3.9238,3.9278,3.9287,3.9302,3.9337,3.9344,3.9386,3.9389,3.9442,3.9438,3.9433,3.9433,3.9464,3.9461,3.9567,3.958,3.9493,3.9494,3.9495,0,3.909,3.9124,3.9155,3.9176,3.9192,3.9227,3.9248,3.9254,3.9276,3.9308,3.9332,3.9367,3.9395,3.9451,3.9464,3.9496,3.9492,3.9527,3.9497,3.9495,3.9492,3.9489,3.9492,3.9533,3.9534,3.9535,3.9535,0,3.9172,3.9176,3.9208,3.9242,3.9268,3.9295,3.932,3.9338,3.9347,3.9372,3.9409,3.9431,3.9473,3.9507,3.9539,3.9552,3.9545,3.9545,3.9554,3.9553,3.9549,3.9551,3.9448,3.9542,3.9542,3.9541,3.9541,3.954,3.9228,3.9257,3.9283,3.9319,3.9339,3.9363,3.9391,3.9404,3.9435,3.9471,3.9472,3.9512,3.9535,3.9576,3.9591,3.9621,3.961,3.9623,3.9626,3.9629,3.9632,3.9545,3.9627,3.9627,3.9627,3.9627,3.9626,0,3.9308,3.9325,3.9358,3.9394,3.9421,3.9414,3.9441,3.9464,3.95,3.9523,3.9551,3.9592,3.9625,3.9641,3.9673,3.9693,3.9691,3.9702,3.9699,3.9702,3.964,3.9629,3.9703,3.9703,3.9703,3.9703,3.9703,3.9703,3.9353,3.9401,3.9408,3.9466,3.9481,3.9521,3.9537,3.9558,3.9577,3.9623,3.9651,3.9662,3.9681,3.9715,3.9744,3.9748,3.9759,3.9771,3.9773,3.9715,3.9707,3.9699,3.9689,3.9774,3.9774,3.9832,3.9833,3.9833]}]]